When you browse on this site, cookies collect data to enhance your experience and personalize the content and advertising you see.
Visit our Privacy Policy to learn more. By continuing to use the site, you agree to this use of cookies and data.
  • In Hungary
  • List of Countries
  • For 7 days
  • Water Temperature
  • Weather Map
  • News
  • Weather Widgets
  • user-avatar
    Login

    Hourly Weather Kamienica

    Today, 25 August, Sunday

    Time Temperature Precipitation Wind Pressure Humidity
    00:00 +19°C° 0 mm 3 mps 760 mmHg 63%
    01:00 +18°C° 0 mm 3 mps 760 mmHg 65%
    02:00 +18°C° 0 mm 3 mps 760 mmHg 67%
    03:00 +17°C° 0 mm 3 mps 760 mmHg 68%
    04:00 +17°C° 0 mm 3 mps 760 mmHg 70%
    05:00 +18°C° 0 mm 3 mps 760 mmHg 68%
    06:00 +18°C° 0 mm 4 mps 760 mmHg 66%
    07:00 +19°C° 0 mm 4 mps 760 mmHg 64%
    08:00 +21°C° 0 mm 4 mps 760 mmHg 61%
    09:00 +23°C° 0 mm 4 mps 760 mmHg 57%
    10:00 +26°C° 0 mm 5 mps 760 mmHg 53%
    11:00 +26°C° 0 mm 5 mps 760 mmHg 50%
    12:00 +27°C° 0 mm 5 mps 760 mmHg 47%
    13:00 +28°C° 0 mm 5 mps 759 mmHg 43%
    14:00 +28°C° 0 mm 5 mps 759 mmHg 42%
    15:00 +28°C° 0 mm 4 mps 759 mmHg 42%
    16:00 +28°C° 0 mm 4 mps 759 mmHg 41%
    17:00 +26°C° 0 mm 4 mps 759 mmHg 47%
    18:00 +24°C° 0 mm 3 mps 759 mmHg 52%
    19:00 +22°C° 0 mm 3 mps 759 mmHg 58%
    20:00 +21°C° 0 mm 3 mps 759 mmHg 60%
    21:00 +20°C° 0 mm 3 mps 759 mmHg 63%
    22:00 +20°C° 0 mm 3 mps 759 mmHg 65%
    23:00 +19°C° 0 mm 3 mps 759 mmHg 66%

    Tomorrow, 26 August, Monday

    Time Temperature Precipitation Wind Pressure Humidity
    00:00 +19°C° 0 mm 3 mps 759 mmHg 67%
    01:00 +19°C° 0 mm 3 mps 759 mmHg 67%
    02:00 +19°C° 0 mm 3 mps 759 mmHg 69%
    03:00 +18°C° 0 mm 3 mps 758 mmHg 70%
    04:00 +18°C° 0 mm 3 mps 758 mmHg 72%
    05:00 +19°C° 0 mm 3 mps 758 mmHg 71%
    06:00 +19°C° 0 mm 3 mps 758 mmHg 70%
    07:00 +20°C° 0 mm 4 mps 758 mmHg 68%
    08:00 +22°C° 0 mm 4 mps 758 mmHg 65%
    09:00 +23°C° 0 mm 4 mps 758 mmHg 62%
    10:00 +26°C° 0 mm 4 mps 758 mmHg 58%
    11:00 +27°C° 0 mm 4 mps 758 mmHg 55%
    12:00 +28°C° 0 mm 4 mps 758 mmHg 53%
    13:00 +29°C° 0 mm 4 mps 758 mmHg 50%
    14:00 +29°C° 0 mm 4 mps 757 mmHg 50%
    15:00 +29°C° 0 mm 4 mps 757 mmHg 51%
    16:00 +29°C° 0 mm 4 mps 757 mmHg 51%
    17:00 +28°C° 0 mm 3 mps 757 mmHg 57%
    18:00 +26°C° 0 mm 3 mps 756 mmHg 62%
    19:00 +25°C° 0 mm 3 mps 756 mmHg 67%
    20:00 +24°C° 0 mm 3 mps 756 mmHg 69%
    21:00 +22°C° 0 mm 3 mps 757 mmHg 72%
    22:00 +21°C° 0 mm 3 mps 757 mmHg 74%
    23:00 +21°C° 0 mm 3 mps 757 mmHg 75%

    Day after tomorrow, 27 August, Tuesday

    Time Temperature Precipitation Wind Pressure Humidity
    00:00 +20°C° 0 mm 3 mps 757 mmHg 77%
    01:00 +20°C° 0 mm 3 mps 757 mmHg 79%
    02:00 +20°C° 0 mm 3 mps 756 mmHg 80%
    03:00 +19°C° 0 mm 3 mps 756 mmHg 82%
    04:00 +19°C° 0 mm 3 mps 756 mmHg 84%
    05:00 +20°C° 0 mm 3 mps 756 mmHg 81%
    06:00 +21°C° 0 mm 3 mps 756 mmHg 79%
    07:00 +22°C° 0 mm 4 mps 756 mmHg 76%
    08:00 +25°C° 0 mm 4 mps 756 mmHg 70%
    09:00 +27°C° 0 mm 4 mps 757 mmHg 64%
    10:00 +29°C° 0 mm 4 mps 757 mmHg 58%
    11:00 +30°C° 0 mm 4 mps 756 mmHg 54%
    12:00 +31°C° 0 mm 3 mps 756 mmHg 49%
    13:00 +33°C° 0 mm 3 mps 756 mmHg 45%
    14:00 +33°C° 0 mm 3 mps 756 mmHg 45%
    15:00 +33°C° 0 mm 3 mps 755 mmHg 44%
    16:00 +33°C° 0 mm 3 mps 755 mmHg 43%
    17:00 +31°C° 0 mm 3 mps 755 mmHg 48%
    18:00 +29°C° 0 mm 3 mps 755 mmHg 54%
    19:00 +27°C° 0 mm 3 mps 755 mmHg 59%
    20:00 +27°C° 0.2 mm 3 mps 755 mmHg 61%
    21:00 +26°C° 0.2 mm 3 mps 755 mmHg 64%
    22:00 +25°C° 0.2 mm 4 mps 756 mmHg 66%
    23:00 +24°C° 0.4 mm 3 mps 755 mmHg 71%

    28 August, Wednesday

    Time Temperature Precipitation Wind Pressure Humidity
    00:00 +24°C° 0.4 mm 2 mps 755 mmHg 75%
    01:00 +23°C° 0.4 mm 2 mps 755 mmHg 79%
    02:00 +23°C° 0.5 mm 2 mps 755 mmHg 81%
    03:00 +21°C° 0.5 mm 2 mps 755 mmHg 83%
    04:00 +21°C° 0.5 mm 3 mps 755 mmHg 84%
    05:00 +22°C° 0.9 mm 3 mps 755 mmHg 83%
    06:00 +22°C° 0.9 mm 3 mps 755 mmHg 81%
    07:00 +24°C° 0.9 mm 3 mps 754 mmHg 79%
    08:00 +26°C° 0.1 mm 3 mps 755 mmHg 73%
    09:00 +28°C° 0.1 mm 3 mps 755 mmHg 66%
    10:00 +29°C° 0.1 mm 4 mps 755 mmHg 60%
    11:00 +30°C° 0 mm 4 mps 754 mmHg 55%
    12:00 +33°C° 0 mm 4 mps 754 mmHg 51%
    13:00 +34°C° 0 mm 4 mps 754 mmHg 47%
    14:00 +34°C° 0 mm 4 mps 753 mmHg 46%
    15:00 +34°C° 0 mm 4 mps 753 mmHg 44%
    16:00 +34°C° 0 mm 4 mps 753 mmHg 43%
    17:00 +31°C° 0.4 mm 3 mps 752 mmHg 49%
    18:00 +29°C° 0.4 mm 3 mps 752 mmHg 55%
    19:00 +27°C° 0.4 mm 3 mps 752 mmHg 61%
    20:00 +26°C° 1.2 mm 3 mps 752 mmHg 66%
    21:00 +25°C° 1.2 mm 4 mps 752 mmHg 70%
    22:00 +23°C° 1.2 mm 4 mps 753 mmHg 75%
    23:00 +23°C° 0.2 mm 4 mps 753 mmHg 77%

    29 August, Thursday

    Time Temperature Precipitation Wind Pressure Humidity
    00:00 +24°C° 0.2 mm 3 mps 752 mmHg 79%
    01:00 +22°C° 0.2 mm 3 mps 752 mmHg 80%
    02:00 +22°C° 0.2 mm 3 mps 752 mmHg 82%
    03:00 +21°C° 0.2 mm 3 mps 752 mmHg 83%
    04:00 +20°C° 0.2 mm 3 mps 752 mmHg 85%
    05:00 +21°C° 0.1 mm 4 mps 752 mmHg 83%
    06:00 +22°C° 0.1 mm 4 mps 752 mmHg 81%
    07:00 +22°C° 0.1 mm 4 mps 752 mmHg 79%
    08:00 +25°C° 0 mm 4 mps 752 mmHg 73%
    09:00 +27°C° 0 mm 4 mps 752 mmHg 68%
    10:00 +28°C° 0 mm 4 mps 752 mmHg 63%
    11:00 +29°C° 0 mm 5 mps 752 mmHg 58%
    12:00 +32°C° 0 mm 5 mps 752 mmHg 53%
    13:00 +33°C° 0 mm 5 mps 752 mmHg 48%
    14:00 +33°C° 0 mm 4 mps 751 mmHg 47%
    15:00 +34°C° 0 mm 4 mps 751 mmHg 45%
    16:00 +34°C° 0 mm 4 mps 751 mmHg 44%
    17:00 +32°C° 0 mm 4 mps 751 mmHg 49%
    18:00 +30°C° 0 mm 3 mps 751 mmHg 53%
    19:00 +28°C° 0 mm 3 mps 751 mmHg 58%
    20:00 +27°C° 0.6 mm 2 mps 751 mmHg 62%
    21:00 +26°C° 0.6 mm 2 mps 752 mmHg 66%
    22:00 +25°C° 0.6 mm 2 mps 752 mmHg 71%
    23:00 +24°C° 0.3 mm 2 mps 752 mmHg 73%

    30 August, Friday

    Time Temperature Precipitation Wind Pressure Humidity
    00:00 +24°C° 0.3 mm 2 mps 752 mmHg 75%
    01:00 +23°C° 0.3 mm 2 mps 752 mmHg 77%
    02:00 +23°C° 0.3 mm 2 mps 753 mmHg 80%
    03:00 +21°C° 0.3 mm 2 mps 753 mmHg 84%
    04:00 +21°C° 0.3 mm 2 mps 753 mmHg 87%
    05:00 +21°C° 0.1 mm 3 mps 753 mmHg 87%
    06:00 +21°C° 0.1 mm 4 mps 754 mmHg 87%
    07:00 +21°C° 0.1 mm 5 mps 754 mmHg 87%
    08:00 +22°C° 0.6 mm 4 mps 755 mmHg 83%
    09:00 +23°C° 0.6 mm 4 mps 755 mmHg 80%
    10:00 +23°C° 0.6 mm 4 mps 756 mmHg 77%
    11:00 +23°C° 0 mm 4 mps 756 mmHg 77%
    12:00 +24°C° 0 mm 3 mps 756 mmHg 78%
    13:00 +24°C° 0 mm 3 mps 756 mmHg 79%
    14:00 +22°C° 0 mm 3 mps 756 mmHg 79%
    15:00 +22°C° 0 mm 3 mps 756 mmHg 79%
    16:00 +22°C° 0 mm 3 mps 756 mmHg 79%
    17:00 +21°C° 0 mm 3 mps 756 mmHg 80%
    18:00 +21°C° 0 mm 2 mps 756 mmHg 82%
    19:00 +20°C° 0 mm 2 mps 756 mmHg 83%
    20:00 +19°C° 0 mm 2 mps 756 mmHg 83%
    21:00 +19°C° 0 mm 2 mps 757 mmHg 84%
    22:00 +18°C° 0 mm 3 mps 757 mmHg 85%
    23:00 +17°C° 0 mm 2 mps 757 mmHg 85%
    Show more